This demonstration page uses our WeatherBlox Daily Observations layout. Learn more.

39.29038, -76.61219

Hourly Observations for April 5, 2016

Temp ( °F °C ) Dew Point ( °F °C ) Humidity (%) Winds ( mph kmh ) Pressure ( in mb ) Visibility ( mi km ) Precip ( " mm )
12:54 am 00:54 undefined 35 1.7 23 -5 61 61 undefined N/A 30.07 1018 N/A 0 0
1:54 am 01:54 undefined 34 1.1 21 -6.1 59 59 undefined N/A 30.11 1020 N/A 0 0
2:54 am 02:54 undefined 34 1.1 19 -7.2 54 54 undefined N/A 30.13 1020 N/A 0 0
3:54 am 03:54 undefined 32 0 18 -7.8 56 56 undefined N/A 30.15 1021 N/A 0 0
4:54 am 04:54 undefined 31 -0.6 15 -9.4 52 52 undefined N/A 30.17 1022 N/A 0 0
5:54 am 05:54 undefined 30 -1.1 13 -10.6 49 49 undefined N/A 30.21 1023 N/A 0 0
6:54 am 06:54 undefined 30 -1.1 12 -11.1 47 47 undefined N/A 30.25 1024 N/A 0 0
7:54 am 07:54 undefined 31 -0.6 11 -11.7 43 43 undefined N/A 30.3 1026 N/A 0 0
8:54 am 08:54 undefined 33 0.6 8 -13.3 35 35 undefined N/A 30.34 1028 N/A 0 0
9:54 am 09:54 undefined 34 1.1 6 -14.4 31 31 undefined N/A 30.37 1029 N/A 0 0
10:54 am 10:54 undefined 35 1.7 5 -15 28 28 undefined N/A 30.39 1029 N/A 0 0
11:54 am 11:54 undefined 37 2.8 7 -13.9 28 28 undefined N/A 30.4 1029 N/A 0 0
12:54 pm 12:54 undefined 38 3.3 7 -13.9 27 27 undefined N/A 30.37 1029 N/A 0 0
1:54 pm 13:54 undefined 40 4.4 8 -13.3 27 27 undefined N/A 30.37 1029 N/A 0 0
2:54 pm 14:54 undefined 42 5.6 9 -12.8 25 25 undefined N/A 30.38 1029 N/A 0 0
3:54 pm 15:54 undefined 42 5.6 9 -12.8 25 25 undefined N/A 30.35 1028 N/A 0 0
4:54 pm 16:54 undefined 44 6.7 10 -12.2 25 25 undefined N/A 30.34 1027 N/A 0 0
5:54 pm 17:54 undefined 43 6.1 10 -12.2 26 26 undefined N/A 30.32 1027 N/A 0 0
6:54 pm 18:54 undefined 43 6.1 9 -12.8 25 25 undefined N/A 30.35 1028 N/A 0 0
7:54 pm 19:54 undefined 43 6.1 10 -12.2 26 26 undefined N/A 30.37 1028 N/A 0 0
8:54 pm 20:54 undefined 43 6.1 10 -12.2 26 26 undefined N/A 30.39 1029 N/A 0 0
9:54 pm 21:54 undefined 42 5.6 13 -10.6 30 30 undefined N/A 30.39 1029 N/A 0 0
10:54 pm 22:54 undefined 41 5 15 -9.4 35 35 undefined N/A 30.38 1029 N/A 0 0
11:54 pm 23:54 undefined 40 4.4 17 -8.3 40 40 undefined N/A 30.38 1029 N/A 0 0

Powered by AerisWeather